Temperature
17 17 18 18 17 17 17 17 18 18 18 18 18 18 18 18 18 18 18 18 18 18 18 18 18 18 18 18 18 18 18 18 18 18 18 18 18 18 18 18 18 17 18
17 17 18 18 17 17 17 17 17 17 17 17 18 18 18 18 18 18 18 18 18 18 18 18 18 18 18 18 18 18 18 18 18 18 18 18 18 18 18 18 18 18 18
17 17 17 17 17 17 17 17 17 17 17 17 17 17 18 18 18 18 18 18 18 18 18 18 18 18 18 18 18 18 18 18 18 18 17 17 17 18 18 18 18 18 18
17 17 17 17 17 17 17 17 17 17 17 17 17 17 17 17 17 17 17 17 17 17 17 17 17 18 17 17 17 17 18 18 18 17 17 17 17 17 17 17 17 17 17
17 17 17 17 17 17 17 17 17 17 17 17 17 17 17 17 17 17 17 17 17 17 17 17 17 17 17 17 17 17 17 17 17 17 17 17 17 17 17 17 17 17 17
17 17 17 17 17 17 17 17 17 17 17 17 17 17 17 17 17 17 17 17 17 17 17 17 17 17 17 17 17 17 17 17 17 17 17 17 17 17 17 17 17 17 17
17 17 17 17 17 17 17 17 17 17 17 17 17 17 17 17 17 17 17 17 17 17 17 17 17 17 17 17 17 17 17 17 16 16 16 16 17 17 17 17 17 17 17
17 17 17 17 17 17 17 17 17 17 17 17 17 17 17 17 17 17 17 17 17 17 17 17 17 17 17 17 17 17 17 16 16 16 16 16 16 17 17 17 17 17 17
17 17 17 17 17 17 17 17 17 17 17 17 17 17 17 17 17 17 17 17 17 17 17 17 17 17 17 17 17 17 17 16 16 16 16 16 16 16 17 17 17 17 17
17 17 17 17 17 17 17 17 17 17 17 17 17 17 17 17 17 17 17 17 16 17 17 16 16 16 16 16 16 16 16 16 16 16 16 16 16 16 16 16 16 16 16
17 17 17 17 17 17 17 17 17 17 17 17 17 17 16 16 16 16 16 16 16 16 16 16 16 16 16 16 16 16 16 16 15 16 16 16 16 16 16 16 16 16 16
18 17 17 17 17 17 16 16 16 16 16 16 16 16 16 16 16 16 16 16 16 16 16 16 16 16 16 16 16 16 15 15 15 15 15 16 16 16 16 16 16 16 16
18 17 17 17 17 17 16 16 16 16 16 16 16 16 16 16 16 16 16 16 16 16 16 16 16 15 15 15 15 15 15 15 15 15 15 15 15 16 16 16 16 16 15
18 17 17 17 17 17 16 16 16 16 16 16 16 16 16 16 16 16 16 16 16 16 16 15 15 15 15 15 15 15 15 15 15 15 15 15 15 15 15 15 15 15 15
18 17 17 17 17 17 16 16 16 16 16 16 16 16 16 16 16 16 16 16 15 15 15 15 15 15 15 15 15 15 15 15 15 15 15 15 15 15 15 15 15 15 15
18 18 17 17 17 17 16 16 16 16 16 16 16 16 16 16 16 16 15 15 15 15 15 15 15 15 15 15 15 15 15 15 15 14 14 15 15 15 15 15 15 15 15
18 18 17 17 17 17 16 16 16 16 16 16 16 16 16 16 16 15 15 15 15 15 15 15 15 15 15 15 15 14 14 14 14 14 14 14 14 14 14 14 14 14 14
18 18 17 17 17 16 16 16 16 16 16 16 16 16 16 16 16 15 15 15 15 15 15 15 15 15 14 14 14 14 14 14 14 14 14 14 14 14 14 14 14 14 14
18 17 17 17 17 16 16 16 16 16 16 16 16 16 15 15 15 15 15 15 15 15 15 15 15 15 14 14 14 14 14 14 14 14 14 14 14 13 13 14 14 14 14
18 18 17 17 17 17 16 16 16 16 16 16 16 15 15 15 15 15 15 15 15 15 15 15 14 14 14 14 14 14 14 14 14 13 13 13 13 13 13 13 13 14 14
18 17 17 17 17 16 16 16 16 16 16 16 16 16 15 15 15 15 15 15 15 15 15 15 14 14 14 14 14 14 14 14 13 13 13 13 13 13 13 13 13 13 13
18 17 17 17 17 16 16 16 16 16 16 16 15 15 15 15 15 15 15 15 15 15 14 14 14 14 14 14 14 14 14 14 13 13 13 13 13 13 13 13 13 13 13
17 17 17 17 17 16 16 16 16 16 16 15 15 15 15 15 15 15 15 15 15 14 14 14 14 14 14 14 14 14 14 15 14 13 13 13 13 13 12 12 13 13 12
17 17 17 17 17 16 16 16 16 16 15 15 15 15 15 15 15 15 15 14 14 14 14 14 14 13 13 13 13 13 14 13 14 14 13 13 13 12 12 12 12 12 12
17 17 17 17 17 16 16 16 16 15 15 15 15 15 15 15 15 14 14 14 14 14 14 14 14 13 13 13 13 13 13 13 13 14 13 13 12 12 12 12 12 12 12
17 17 17 17 16 16 16 16 16 15 15 15 15 15 15 14 14 14 14 14 14 14 14 14 14 13 13 13 13 13 13 13 13 13 13 13 13 12 12 12 12 12 12
Wind_Speed
3 5 7 6 6 7 7 7 7 7 8 8 8 9 9 9 10 10 10 9 9 10 10 11 11 11 11 11 10 10 10 10 9 9 8 8 8 8 8 6 5 7 8
3 5 6 6 7 7 7 7 6 7 7 8 8 9 9 9 10 10 9 10 10 10 10 11 12 12 12 13 13 12 12 11 10 9 8 9 11 10 9 7 6 7 7
4 5 6 6 7 7 8 7 7 7 8 8 9 9 9 9 10 10 10 10 10 10 10 11 12 12 12 13 13 13 12 11 10 8 5 8 11 11 9 8 8 7 7
5 5 7 7 7 8 8 9 8 8 9 9 9 9 9 9 10 9 10 10 10 10 10 11 12 12 11 12 12 12 11 11 9 5 6 9 10 12 10 10 9 8 8
5 6 8 7 8 9 9 10 11 11 10 10 10 10 10 10 10 10 10 10 10 10 11 11 11 11 11 12 11 11 10 9 7 6 9 9 9 11 11 10 10 10 9
6 7 8 7 8 9 9 10 11 11 11 11 11 11 11 11 11 11 10 10 11 11 11 11 11 11 11 11 11 11 10 7 6 9 9 9 10 11 11 11 10 10 10
6 6 8 8 8 9 9 10 11 11 12 11 12 12 12 12 12 12 11 11 11 11 10 11 11 10 11 11 11 11 10 7 8 8 8 9 11 11 11 11 11 10 10
5 6 7 8 8 9 9 10 11 11 11 11 12 12 12 12 13 13 12 11 11 11 11 11 10 10 10 11 11 11 10 7 8 8 9 10 11 11 11 11 11 10 10
5 5 5 6 7 8 9 10 10 10 11 11 11 11 12 12 12 12 13 13 11 11 11 11 11 11 11 11 11 10 10 8 7 7 8 9 11 11 10 10 10 10 10
4 4 5 5 6 6 8 9 9 9 10 10 10 10 9 10 10 10 11 12 12 12 12 12 12 12 12 11 11 10 7 5 8 8 7 9 11 10 10 10 10 10 10
4 4 4 5 5 5 6 7 7 8 8 7 9 8 5 7 8 9 12 11 11 12 12 12 12 11 10 10 10 7 5 7 8 8 9 11 11 10 10 10 9 10 10
4 4 4 4 5 5 5 5 5 5 6 6 6 6 6 7 7 8 10 10 10 10 10 11 9 7 5 7 7 4 6 8 8 9 10 12 11 10 9 9 10 10 10
4 4 3 3 4 4 4 4 4 4 4 5 5 6 6 6 6 7 6 7 7 7 8 7 6 8 8 7 6 6 7 7 7 9 11 12 11 11 10 9 10 10 10
4 3 3 2 3 3 4 3 3 3 3 4 4 6 5 4 4 5 5 5 5 5 6 6 6 8 8 8 7 7 8 7 7 8 11 12 11 11 10 9 10 11 11
3 3 3 2 2 3 3 3 3 3 3 4 4 4 5 4 4 5 5 5 5 5 5 5 6 7 7 7 7 8 8 8 8 8 9 12 12 11 11 10 11 11 11
3 3 3 2 2 3 3 3 3 3 4 4 4 4 5 4 4 4 4 4 4 4 4 4 5 5 5 6 7 7 7 7 8 8 7 9 12 12 12 12 12 11 11
2 3 3 2 3 3 3 3 3 3 3 3 3 4 4 4 3 3 3 3 3 3 4 4 5 4 5 5 5 6 6 7 7 7 7 7 8 11 12 12 11 11 10
2 3 3 3 3 3 3 3 3 3 3 3 3 2 3 3 3 3 2 2 3 2 2 3 3 3 3 4 4 4 5 5 6 7 7 7 7 7 10 12 12 11 11
3 3 4 4 3 3 3 3 3 3 3 3 3 2 2 2 2 3 2 1 2 2 2 2 2 2 3 3 3 3 3 4 4 5 6 7 7 7 7 9 11 11 11
3 3 4 4 4 4 3 3 3 2 2 2 1 1 2 1 2 2 1 1 1 1 1 1 2 2 2 2 2 3 3 3 3 4 5 5 6 6 6 6 6 7 9
4 4 4 4 4 4 3 2 2 2 2 1 1 1 1 1 1 2 1 1 1 1 1 1 1 1 1 1 1 1 2 2 2 2 3 3 4 4 4 5 5 4 5
4 4 4 4 4 4 2 2 2 2 1 1 1 1 1 1 1 1 1 1 1 1 1 1 1 0 1 0 0 0 1 1 1 1 1 2 2 2 3 4 4 4 4
4 4 3 4 3 3 3 2 2 2 1 2 1 1 1 1 1 1 1 1 1 1 1 1 1 1 1 1 0 1 1 0 1 1 1 1 1 1 1 2 3 3 3
5 4 4 4 3 3 3 3 3 2 2 2 1 1 1 1 1 1 1 1 1 1 1 2 1 2 2 1 1 1 2 1 1 1 1 0 1 1 1 1 1 2 2
4 4 3 3 4 3 3 3 4 3 2 1 1 2 2 1 1 1 2 2 2 2 2 2 2 2 2 2 1 1 1 1 3 2 1 1 1 0 0 1 0 1 2
3 3 3 3 3 3 4 4 4 4 3 2 2 2 2 1 2 2 2 2 2 2 2 2 2 3 2 2 3 2 2 2 2 2 3 2 2 1 1 1 1 0 1
Wind_Direction
35 42 48 36 46 53 61 64 62 70 72 77 81 80 80 81 80 77 74 73 70 68 68 69 70 68 63 63 68 73 83 85 80 77 75 71 83 104 109 110 121 109 99
46 53 63 45 50 56 60 65 65 72 77 77 78 77 78 78 76 76 74 72 72 68 68 69 70 68 66 66 71 76 80 78 74 73 77 84 85 92 97 93 80 85 96
64 64 74 58 51 55 61 61 63 74 79 78 79 76 77 77 77 75 72 69 69 67 67 68 69 69 68 69 71 73 74 73 71 68 71 80 86 84 86 89 86 86 89
69 66 62 60 55 58 60 58 63 78 81 77 78 76 75 75 76 76 74 70 67 67 68 69 71 69 68 69 70 72 73 71 67 61 71 70 77 79 79 83 83 83 83
75 70 70 63 62 63 62 63 68 76 77 77 77 76 75 75 74 74 74 71 69 67 67 68 70 69 68 69 70 71 69 70 69 65 65 68 72 73 75 77 80 81 79
84 78 77 66 67 67 67 72 74 74 74 74 76 77 76 74 72 73 73 72 70 68 66 65 67 68 69 70 70 69 68 67 75 67 64 67 71 72 72 74 76 78 77
85 79 82 73 69 71 73 75 76 76 75 74 75 76 77 77 73 72 73 73 71 69 67 68 65 67 70 72 70 67 63 54 66 69 68 67 68 69 70 71 73 74 77
85 81 87 92 80 73 73 74 76 77 76 76 76 75 75 75 72 70 71 71 72 71 69 68 67 69 71 72 71 65 57 38 70 69 69 68 68 68 68 69 71 73 75
87 82 83 93 97 94 82 77 78 78 78 78 77 77 76 75 74 72 69 65 68 69 68 65 65 68 67 68 68 63 58 42 58 64 68 66 69 71 69 68 70 76 78
88 82 83 86 88 95 95 86 81 80 80 81 80 78 82 86 84 80 74 67 64 65 64 64 65 67 66 67 65 62 55 51 56 60 61 65 66 71 70 69 70 77 78
90 87 90 88 84 86 87 96 97 96 91 100 96 93 89 81 79 81 71 70 68 67 65 64 65 67 73 78 69 59 50 62 63 58 57 58 61 67 69 70 71 76 79
104 98 96 95 91 92 91 97 91 91 93 88 89 90 79 77 72 74 83 76 73 73 75 69 69 76 66 74 80 71 64 64 63 62 59 57 60 64 68 70 73 76 77
113 107 100 102 101 99 102 98 93 89 91 88 87 90 85 83 82 77 79 82 78 76 70 75 71 58 60 61 60 63 60 59 61 61 57 57 58 60 63 68 76 79 79
123 119 113 107 110 106 106 104 105 103 100 91 88 90 87 79 75 73 74 70 68 66 61 59 60 60 60 62 62 62 61 58 60 65 59 55 55 56 59 67 76 78 78
134 136 129 132 118 116 104 106 114 105 96 95 87 87 88 85 78 75 72 68 66 66 67 58 58 59 59 59 58 58 58 60 61 65 66 58 53 54 57 68 73 75 75
145 134 131 148 140 134 120 121 109 106 107 100 90 81 86 83 81 80 77 66 62 63 62 64 62 57 60 57 57 58 58 58 59 62 65 68 61 54 54 57 62 67 69
161 150 140 148 152 145 129 113 105 105 107 100 91 76 81 74 76 79 73 72 63 64 66 63 62 58 61 62 61 60 59 54 55 57 57 58 66 64 57 57 60 63 65
177 159 147 152 153 148 139 128 116 113 105 100 91 73 77 81 79 72 71 70 71 74 67 66 56 56 62 56 55 57 62 60 55 56 60 61 57 61 65 60 59 59 59
180 169 158 159 158 148 145 139 129 121 108 94 87 73 62 72 75 77 70 68 75 71 68 75 68 56 61 60 62 59 59 62 58 56 59 58 61 60 65 71 65 57 53
179 175 164 161 167 154 154 153 144 141 130 106 99 87 63 59 80 89 95 98 100 88 66 90 93 75 62 59 69 64 61 73 67 54 53 57 58 59 58 58 66 69 59
182 184 176 175 172 166 167 177 180 178 180 158 133 103 107 96 90 98 113 109 114 96 65 82 93 101 85 71 105 98 97 84 71 69 56 51 57 56 56 58 54 52 73
187 193 187 186 179 175 185 193 196 196 204 168 155 140 128 142 132 116 159 154 137 121 108 91 103 230 93 82 300 232 149 147 119 96 81 47 48 60 51 51 55 51 43
193 189 190 187 181 182 183 184 178 171 202 195 194 183 185 177 192 206 220 221 198 204 183 193 195 230 238 217 306 306 292 356 26 134 96 69 41 34 52 50 44 42 45
195 193 191 182 179 184 181 193 203 215 230 244 233 201 200 192 205 232 238 250 234 232 211 219 221 235 238 229 209 295 317 339 282 273 184 120 27 8 28 51 33 39 39
192 189 187 187 184 187 196 206 232 243 245 245 252 235 237 217 221 239 255 251 244 237 240 230 225 236 231 245 247 249 258 245 265 269 270 266 237 233 319 305 295 31 27
183 183 188 195 195 197 207 214 228 240 244 245 251 259 247 226 228 233 247 250 252 245 240 238 232 231 241 241 246 245 250 253 263 258 264 272 277 276 249 231 242 40 353
Height
1529 1527 1525 1524 1523 1522 1521 1520 1520 1519 1519 1519 1519 1518 1518 1518 1518 1517 1516 1516 1516 1515 1514 1513 1511 1510 1508 1505 1503 1500 1501 1503 1505 1505 1503 1499 1497 1499 1503 1507 1509 1511 1511
1529 1528 1526 1525 1524 1523 1522 1521 1520 1520 1520 1520 1520 1520 1519 1519 1519 1519 1518 1518 1517 1516 1516 1515 1513 1512 1510 1508 1506 1504 1505 1506 1507 1507 1505 1502 1500 1502 1505 1508 1510 1511 1512
1530 1529 1528 1526 1525 1524 1523 1522 1520 1520 1520 1521 1521 1521 1521 1521 1521 1520 1520 1519 1519 1518 1517 1516 1515 1514 1513 1512 1511 1510 1509 1510 1510 1509 1509 1508 1507 1507 1509 1510 1511 1512 1512
1531 1530 1529 1528 1527 1526 1525 1523 1520 1518 1520 1521 1522 1522 1522 1522 1522 1521 1521 1521 1520 1520 1519 1518 1517 1516 1515 1515 1514 1513 1513 1512 1512 1512 1513 1512 1511 1511 1511 1512 1513 1513 1513
1532 1532 1530 1529 1528 1527 1526 1524 1522 1521 1522 1523 1523 1524 1523 1523 1523 1523 1523 1522 1522 1521 1521 1520 1519 1518 1518 1517 1516 1516 1515 1515 1515 1515 1515 1514 1514 1514 1514 1514 1515 1515 1515
1534 1533 1532 1531 1530 1529 1528 1527 1526 1525 1525 1525 1525 1525 1525 1525 1525 1524 1524 1524 1523 1523 1522 1521 1521 1520 1520 1519 1518 1518 1518 1517 1518 1518 1517 1517 1516 1516 1516 1516 1516 1516 1516
1536 1535 1534 1532 1531 1531 1530 1529 1529 1528 1528 1527 1527 1527 1527 1527 1526 1526 1525 1525 1525 1524 1524 1523 1522 1522 1522 1521 1520 1520 1520 1519 1520 1520 1519 1519 1519 1518 1518 1518 1518 1518 1518
1537 1536 1535 1534 1533 1532 1532 1531 1531 1530 1530 1530 1529 1529 1529 1529 1528 1528 1527 1527 1527 1526 1526 1525 1524 1524 1523 1523 1522 1522 1522 1522 1522 1522 1522 1521 1521 1521 1520 1520 1520 1520 1519
1538 1537 1537 1536 1535 1534 1534 1533 1533 1533 1532 1532 1531 1531 1531 1531 1530 1530 1530 1529 1528 1528 1527 1527 1526 1525 1525 1524 1524 1523 1523 1523 1524 1524 1524 1524 1523 1522 1522 1522 1521 1521 1521
1539 1538 1538 1538 1537 1537 1536 1535 1535 1535 1534 1534 1534 1533 1533 1533 1533 1532 1532 1531 1530 1530 1529 1528 1527 1527 1526 1526 1526 1525 1525 1526 1526 1527 1526 1525 1525 1524 1524 1523 1523 1522 1522
1540 1539 1539 1539 1539 1539 1538 1537 1537 1537 1536 1536 1536 1535 1535 1536 1535 1535 1534 1533 1532 1531 1531 1530 1530 1529 1529 1528 1528 1528 1528 1529 1528 1528 1527 1527 1526 1526 1525 1525 1524 1524 1523
1541 1541 1540 1540 1540 1540 1539 1539 1539 1539 1538 1538 1538 1538 1538 1538 1537 1536 1535 1535 1535 1534 1533 1532 1532 1531 1531 1532 1531 1530 1531 1531 1530 1530 1529 1528 1527 1527 1526 1525 1525 1525 1524
1542 1541 1541 1541 1541 1541 1540 1540 1540 1540 1539 1539 1540 1540 1540 1539 1539 1538 1538 1537 1537 1536 1536 1535 1535 1535 1534 1533 1533 1533 1533 1532 1532 1531 1530 1529 1529 1528 1527 1526 1526 1526 1526
1542 1542 1542 1542 1542 1542 1541 1541 1540 1540 1540 1540 1541 1541 1541 1541 1541 1540 1540 1539 1539 1539 1538 1538 1537 1537 1537 1536 1536 1535 1535 1534 1534 1533 1532 1531 1530 1529 1528 1528 1527 1527 1527
1542 1542 1542 1542 1542 1542 1541 1541 1541 1541 1541 1542 1541 1542 1542 1542 1542 1542 1542 1541 1541 1540 1540 1539 1539 1539 1538 1538 1537 1537 1536 1536 1535 1535 1533 1532 1531 1530 1529 1529 1528 1528 1528
1542 1542 1542 1542 1542 1542 1542 1542 1541 1542 1541 1542 1543 1543 1543 1543 1543 1543 1543 1542 1542 1542 1541 1541 1541 1540 1540 1539 1538 1538 1537 1537 1537 1536 1535 1534 1533 1532 1531 1530 1529 1529 1529
1542 1543 1543 1543 1543 1543 1543 1542 1542 1542 1543 1543 1543 1544 1544 1544 1545 1544 1544 1544 1543 1543 1543 1542 1542 1541 1541 1540 1540 1539 1538 1538 1538 1537 1536 1536 1535 1533 1533 1532 1531 1531 1530
1542 1543 1543 1542 1543 1543 1543 1543 1543 1543 1543 1544 1544 1545 1545 1545 1545 1545 1544 1544 1544 1544 1543 1543 1542 1542 1541 1541 1540 1540 1539 1538 1538 1538 1537 1537 1536 1535 1534 1533 1532 1532 1532
1542 1542 1542 1543 1543 1543 1544 1544 1544 1544 1544 1545 1545 1545 1546 1546 1546 1545 1545 1544 1544 1544 1544 1543 1543 1542 1542 1541 1541 1540 1540 1539 1539 1539 1538 1538 1537 1536 1535 1534 1533 1532 1532
1541 1542 1542 1542 1543 1544 1544 1545 1545 1545 1545 1545 1545 1545 1545 1546 1546 1545 1545 1545 1544 1544 1544 1543 1543 1542 1542 1542 1541 1541 1541 1540 1540 1539 1539 1539 1538 1537 1536 1535 1534 1533 1533
1541 1541 1542 1542 1543 1543 1544 1544 1545 1545 1545 1545 1545 1545 1545 1545 1545 1545 1545 1545 1544 1544 1544 1543 1543 1543 1542 1542 1542 1542 1541 1541 1540 1540 1539 1539 1539 1538 1537 1536 1535 1534 1534
1540 1541 1542 1542 1543 1543 1543 1544 1544 1545 1545 1545 1545 1545 1545 1545 1545 1545 1545 1544 1544 1543 1543 1543 1542 1542 1542 1542 1542 1542 1542 1542 1540 1540 1539 1539 1539 1538 1537 1537 1536 1535 1534
1539 1540 1541 1541 1542 1542 1543 1543 1544 1544 1544 1544 1544 1544 1544 1544 1544 1544 1544 1543 1543 1543 1542 1542 1541 1541 1541 1541 1541 1542 1542 1541 1541 1541 1540 1539 1538 1538 1537 1536 1536 1535 1534
1538 1539 1540 1540 1541 1542 1542 1542 1543 1543 1543 1543 1543 1543 1543 1543 1543 1543 1543 1542 1542 1542 1541 1541 1541 1541 1540 1541 1540 1540 1541 1541 1541 1540 1540 1539 1538 1537 1537 1536 1535 1534 1533
1536 1537 1538 1539 1540 1540 1541 1541 1542 1542 1542 1542 1542 1542 1542 1542 1541 1541 1541 1541 1541 1540 1540 1540 1539 1539 1539 1539 1539 1539 1539 1539 1540 1540 1539 1538 1538 1537 1536 1535 1534 1534 1533
1534 1535 1536 1537 1538 1538 1539 1540 1540 1540 1540 1540 1540 1540 1540 1540 1539 1539 1539 1539 1539 1539 1538 1538 1538 1537 1537 1538 1538 1538 1538 1538 1538 1538 1538 1537 1537 1536 1535 1534 1534 1533 1532